Location: Espelette
(43.3402°N, 1.4474°W)
Time: 22:08:37
(UTC+00:00)

Lacrosse 4 Rocket - Pass Details

Date: 19 May 2025
Orbit: 513 x 576 km, 68.0° (Epoch: 18 June)

Event Time Altitude Azimuth Distance (km) Brightness Sun altitude
Rises 20:14:07 0° 238° (WSW) 2,626 5.1 -7.9°
Reaches altitude 10° 20:16:33 10° 252° (WSW) 1,750 4.4 -8.3°
Maximum altitude 20:19:48 25° 309° (NW) 1,094 4.0 -8.7°
Drops below altitude 10° 20:23:07 10° 6° (N) 1,785 4.4 -9.2°
Sets 20:25:38 0° 20° (NNE) 2,691 5.1 -9.5°
